Change the Weather History Date:

Tuesday, October 1, 2013

  Actual Average Record
Temperature  
Mean Temperature 66 °F -  
Max Temperature 71 °F 70 °F - ()
Min Temperature 62 °F 52 °F - ()
Cooling Degree Days 2    
Growing Degree Days 16 (Base 50)    
Moisture  
Dew Point 59 °F    
Average Humidity 79    
Maximum Humidity 94    
Minimum Humidity 44    
Precipitation  
Precipitation 0.00 in -13.12 in - ()
Sea Level Pressure  
Sea Level Pressure 29.64 in    
Wind  
Wind Speed 5 mph ()    
Max Wind Speed 13 mph    
Max Gust Speed -    
Visibility 6.4 miles    
Events Rain , Thunderstorm    
T = Trace of Precipitation, MM = Missing Value Source: Averaged Metar Reports

Daily Weather History Graph

Daily Weather History Graph

Search for Another Location

Airport or City:

Trip Planner

Search our weather history database for the weather conditions in past years. The results will help you decide how hot, cold, wet, or windy it might be!

Date:

Astronomy

Oct. 01, 2013 Rise Set
Actual Time 6:37 AM CEST 6:23 PM CEST
Civil Twilight 6:10 AM CEST 6:50 PM CEST
Nautical Twilight 5:38 AM CEST 7:22 PM CEST
Astronomical Twilight 5:05 AM CEST 7:54 PM CEST
Moon 2:52 AM CEST (10/1) 4:18 PM CEST (10/1)
Length of Visible Light 12h 40m
Length of Day
11h 45m
Waning Crescent, 14% of the Moon is Illuminated
Oct 1
Waning Crescent
Oct 5
New
Oct 12
First Quarter
Oct 19
Full
Oct 27
Last Quarter

Hourly Weather History & Observations

Time (CEST) Temp. Dew Point Humidity Pressure Visibility Wind Dir Wind Speed Gust Speed Precip Events Conditions
12:20 AM 62.6 °F 59.0 °F 88% 29.59 in 6.2 mi South 5.8 mph - N/A   Mostly Cloudy
12:50 AM 64.4 °F 59.0 °F 83% 29.59 in 6.2 mi ESE 3.5 mph - N/A   Mostly Cloudy
1:20 AM 62.6 °F 60.8 °F 94% 29.59 in 6.2 mi SSE 5.8 mph - N/A Thunderstorm Mostly Cloudy
1:50 AM 64.4 °F 59.0 °F 83% 29.59 in 6.2 mi Variable 2.3 mph - N/A   Mostly Cloudy
2:20 AM 62.6 °F 60.8 °F 94% 29.59 in 6.2 mi South 5.8 mph - N/A   Mostly Cloudy
2:50 AM 64.4 °F 60.8 °F 88% 29.59 in 6.2 mi South 6.9 mph - N/A Rain Light Rain
3:20 AM 64.4 °F 60.8 °F 88% 29.59 in 6.2 mi East 3.5 mph - N/A Thunderstorm Mostly Cloudy
3:50 AM 64.4 °F 60.8 °F 88% 29.59 in 6.2 mi SSW 4.6 mph - N/A   Mostly Cloudy
4:20 AM 64.4 °F 60.8 °F 88% 29.56 in 6.2 mi SE 4.6 mph - N/A   Mostly Cloudy
4:50 AM 64.4 °F 60.8 °F 88% 29.56 in 6.2 mi SE 3.5 mph - N/A Thunderstorm Mostly Cloudy
5:00 AM 63 °F 60 °F 86% 29.59 in 17 mi South 2.2 mph - -   Mostly Cloudy
5:20 AM 64.4 °F 60.8 °F 88% 29.59 in 6.2 mi Variable 4.6 mph - N/A Thunderstorm Mostly Cloudy
5:50 AM 62.6 °F 60.8 °F 94% 29.59 in 6.2 mi Variable 2.3 mph - N/A Rain Light Rain
6:20 AM 62.6 °F 60.8 °F 94% 29.59 in 6.2 mi ESE 4.6 mph - N/A Rain , Thunderstorm Light Rain
6:50 AM 62.6 °F 60.8 °F 94% 29.59 in 6.2 mi South 4.6 mph - N/A Rain Light Rain
7:20 AM 62.6 °F 60.8 °F 94% 29.59 in 6.2 mi South 5.8 mph - N/A Rain Rain
7:50 AM 62.6 °F 60.8 °F 94% 29.59 in 3.7 mi SE 5.8 mph - N/A Rain Rain
8:20 AM 62.6 °F 60.8 °F 94% 29.59 in 6.2 mi SE 5.8 mph - N/A   Mostly Cloudy
8:50 AM 62.6 °F 60.8 °F 94% 29.62 in 6.2 mi SE 5.8 mph - N/A Rain Light Rain
9:20 AM 62.6 °F 60.8 °F 94% 29.62 in 6.2 mi SSE 5.8 mph - N/A Rain Light Rain
9:50 AM 64.4 °F 60.8 °F 88% 29.62 in 6.2 mi SSE 5.8 mph - N/A Rain Light Rain
10:20 AM 66.2 °F 60.8 °F 83% 29.62 in 6.2 mi SE 4.6 mph - N/A   Mostly Cloudy
10:50 AM 68.0 °F 59.0 °F 73% 29.62 in 6.2 mi SE 6.9 mph - N/A   Mostly Cloudy
11:20 AM 68.0 °F 60.8 °F 78% 29.62 in 6.2 mi SSE 5.8 mph - N/A   Mostly Cloudy
11:50 AM 69.8 °F 60.8 °F 73% 29.62 in 6.2 mi SSE 4.6 mph - N/A   Mostly Cloudy
12:20 PM 69.8 °F 60.8 °F 73% 29.62 in 6.2 mi ESE 3.5 mph - N/A   Overcast
12:50 PM 69.8 °F 59.0 °F 68% 29.62 in 6.2 mi ESE 3.5 mph - N/A   Mostly Cloudy
1:20 PM 71.6 °F 60.8 °F 69% 29.62 in 6.2 mi WSW 12.7 mph - N/A   Mostly Cloudy
1:50 PM 68.0 °F 60.8 °F 78% 29.62 in 6.2 mi WNW 8.1 mph - N/A   Mostly Cloudy
2:20 PM 69.8 °F 59.0 °F 68% 29.62 in 6.2 mi North 5.8 mph - N/A   Mostly Cloudy
2:50 PM 71.6 °F 57.2 °F 60% 29.62 in 6.2 mi West 6.9 mph - N/A   Mostly Cloudy
3:20 PM 71.6 °F 57.2 °F 60% 29.65 in 6.2 mi West 9.2 mph - N/A   Mostly Cloudy
3:50 PM 71.6 °F 55.4 °F 57% 29.65 in 6.2 mi WNW 9.2 mph - N/A   Mostly Cloudy
4:20 PM 71.6 °F 55.4 °F 57% 29.65 in 6.2 mi WNW 8.1 mph - N/A   Scattered Clouds
4:50 PM 71.6 °F 53.6 °F 53% 29.65 in 6.2 mi WNW 5.8 mph - N/A   Scattered Clouds
5:00 PM 71 °F 54 °F 44% 29.65 in 40 mi WSW 6.7 mph - -  
5:20 PM 71.6 °F 53.6 °F 53% 29.65 in 6.2 mi West 5.8 mph - N/A   Scattered Clouds
5:50 PM 69.8 °F 53.6 °F 56% 29.65 in 6.2 mi West 4.6 mph - N/A   Scattered Clouds
6:20 PM 68.0 °F 51.8 °F 56% 29.65 in 6.2 mi Variable 2.3 mph - N/A   Scattered Clouds
6:50 PM 64.4 °F 55.4 °F 73% 29.68 in 6.2 mi South 3.5 mph - N/A   Mostly Cloudy
7:20 PM 64.4 °F 55.4 °F 73% 29.68 in 6.2 mi South 4.6 mph - N/A Rain Light Rain
7:50 PM 64.4 °F 59.0 °F 83% 29.68 in 6.2 mi ESE 6.9 mph - N/A Rain Light Rain
8:20 PM 64.4 °F 59.0 °F 83% 29.71 in 6.2 mi SE 4.6 mph - N/A   Mostly Cloudy
8:50 PM 64.4 °F 57.2 °F 77% 29.71 in 6.2 mi ESE 4.6 mph - N/A   Mostly Cloudy
9:20 PM 64.4 °F 57.2 °F 77% 29.71 in 6.2 mi East 3.5 mph - N/A   Mostly Cloudy
9:50 PM 62.6 °F 57.2 °F 82% 29.71 in 6.2 mi Variable 2.3 mph - N/A   Mostly Cloudy
10:20 PM 64.4 °F 59.0 °F 83% 29.74 in 6.2 mi Calm Calm - N/A   Mostly Cloudy
10:50 PM 62.6 °F 59.0 °F 88% 29.74 in 6.2 mi NNE 4.6 mph - N/A   Mostly Cloudy
11:00 PM 62 °F 59 °F 87% 29.75 in 22 mi North 2.2 mph - -   Overcast
11:20 PM 62.6 °F 59.0 °F 88% 29.74 in 6.2 mi Variable 2.3 mph - N/A   Mostly Cloudy
11:50 PM 62.6 °F 57.2 °F 82% 29.74 in 6.2 mi Variable 2.3 mph - N/A   Mostly Cloudy